Wetbulb
58.32 58.58 58.26 57.75 58.55 57.48 57.95 57.82 57.24 57.47 57.58 57.75 57.15 56.51 56.22 55.91 54.32 54.96 52.30 56.76 58.53 61.86 59.17 57.22 54.90 54.72 55.67 52.80 53.17 52.16 45.06 43.73 46.03 49.00 48.18 53.90 54.06 57.49 60.15 57.28 56.35 58.03 59.55 64.39 66.91
58.44 57.56 58.18 57.27 57.08 57.20 57.40 57.23 56.62 56.93 57.16 57.00 56.85 56.42 56.11 55.05 52.95 53.17 58.92 62.93 61.44 62.03 55.40 54.53 52.17 52.90 52.07 51.22 51.55 48.61 45.31 46.14 53.96 53.51 49.33 51.48 53.10 55.43 55.28 57.02 57.57 56.44 57.23 65.60 66.16
58.18 57.72 57.77 57.02 56.71 57.17 57.07 56.75 56.35 56.60 56.92 56.97 56.49 55.86 55.54 54.34 53.79 56.78 63.08 61.47 61.38 60.83 55.38 56.44 55.13 53.37 49.70 50.78 50.52 48.98 45.34 49.24 52.43 53.45 54.16 52.91 54.20 55.22 53.25 52.58 56.21 56.88 61.62 63.77 63.81
58.09 57.81 57.59 57.60 57.00 56.38 55.86 56.00 56.06 56.13 56.78 56.09 55.55 54.91 55.00 54.40 48.59 58.42 63.48 61.91 61.84 58.24 55.85 55.48 53.01 50.15 48.37 47.85 50.83 46.88 49.20 50.78 52.91 55.50 54.52 54.09 55.57 53.62 52.14 52.70 55.33 58.82 62.41 63.63 63.15
57.89 57.73 57.15 56.60 56.58 56.28 55.42 55.16 55.82 55.92 56.01 55.50 54.75 54.12 54.04 54.15 55.24 61.88 63.51 61.38 57.69 56.82 55.64 53.20 50.51 49.89 47.79 49.47 49.66 47.96 50.32 51.78 55.09 54.09 54.93 55.20 53.37 53.22 52.58 55.68 57.40 58.33 59.98 62.32 62.70
57.58 57.17 56.44 56.57 56.63 55.48 55.63 55.07 55.56 55.50 55.58 54.81 53.89 53.17 53.38 50.56 59.75 62.59 60.61 58.27 55.42 55.54 55.27 53.06 51.87 52.63 50.18 49.08 48.45 50.37 51.12 51.12 53.36 53.36 54.75 52.63 52.71 54.23 54.45 56.28 55.48 59.15 60.32 61.20 61.11
57.58 57.05 56.61 56.42 56.28 55.53 55.64 54.38 55.40 55.60 54.91 53.74 53.32 53.59 53.17 53.05 60.35 61.99 58.52 56.35 57.66 56.84 53.27 54.96 55.13 52.47 52.60 49.46 52.10 51.05 47.68 49.42 51.26 52.28 53.21 53.76 51.14 50.84 55.79 57.03 58.53 57.85 59.04 59.43 59.99
57.70 56.93 55.96 55.46 55.21 55.06 54.86 54.42 55.01 54.71 54.21 53.35 52.83 54.43 51.67 60.85 61.47 59.76 60.43 58.35 58.12 57.65 55.89 57.65 57.33 54.06 52.42 53.90 50.52 47.48 48.21 43.94 49.05 51.10 52.72 52.66 44.91 51.64 57.34 56.55 55.93 56.84 57.67 58.20 58.91
57.28 56.84 55.73 55.10 54.76 54.49 54.53 54.75 54.12 53.95 53.46 53.29 53.42 55.10 53.00 60.28 56.82 58.14 59.35 57.18 57.73 57.46 57.30 57.00 55.78 52.53 52.37 47.83 45.30 46.26 41.18 43.65 46.57 51.22 50.85 49.84 45.96 51.58 56.61 56.25 55.41 57.03 56.90 58.41 58.88
56.89 56.62 55.59 54.96 54.51 54.12 54.22 53.76 54.24 52.90 53.24 55.83 56.12 51.98 57.07 53.72 56.68 56.03 58.41 57.73 55.85 55.62 53.99 53.36 51.84 49.20 49.09 46.20 39.29 41.09 41.95 44.13 44.45 47.80 49.57 47.08 47.22 51.07 53.90 55.33 56.14 56.69 57.72 58.33 58.77
56.61 56.54 55.43 54.94 54.41 54.02 52.37 53.78 52.10 51.46 53.95 51.88 53.63 52.65 53.27 56.06 58.02 55.17 57.01 56.24 55.83 53.70 49.10 51.61 47.28 44.55 46.87 48.39 47.40 46.34 44.61 43.65 46.06 49.00 47.29 46.06 47.03 49.73 52.67 54.05 55.00 56.17 57.24 57.77 58.62
56.38 55.93 55.16 54.72 54.61 54.13 54.11 53.67 57.03 59.11 53.02 55.42 52.73 55.03 56.11 56.75 52.31 53.93 56.43 52.27 52.54 48.28 50.62 47.48 44.64 48.69 49.84 48.91 47.59 46.07 44.39 43.68 46.25 47.37 46.61 45.66 46.18 48.58 51.82 52.81 54.74 55.51 56.83 57.82 58.88
55.77 55.43 54.82 54.67 54.24 53.16 54.07 54.55 60.14 59.86 52.63 54.05 53.10 52.50 54.05 55.13 51.50 51.50 54.11 52.67 50.05 48.05 47.99 45.21 47.26 50.23 48.17 47.33 45.28 45.42 44.64 44.84 44.28 46.26 46.25 47.17 44.54 46.86 50.34 53.25 54.34 55.61 56.67 57.73 58.69
55.32 54.67 54.06 53.49 50.87 56.64 54.27 57.93 58.45 60.20 47.10 49.13 50.38 52.68 54.44 54.55 49.89 54.57 55.11 52.54 50.53 47.74 47.67 47.78 50.41 48.63 47.25 45.19 46.00 43.36 48.68 47.33 45.92 44.91 40.27 47.47 38.55 45.95 48.56 49.78 52.25 54.41 55.68 56.79 58.37
54.43 54.23 53.30 52.97 57.16 54.71 60.73 60.40 62.54 59.90 36.17 49.98 50.67 56.51 54.40 50.88 50.77 51.70 55.54 53.02 48.61 47.94 48.85 46.52 46.57 46.73 45.54 47.11 49.25 45.71 48.97 47.88 47.07 44.49 44.13 42.45 40.86 43.83 47.95 46.79 50.52 53.77 55.93 57.39 59.18
54.15 54.15 53.40 53.31 54.57 57.65 61.20 64.26 61.32 47.32 35.70 46.39 50.39 49.44 49.15 49.92 49.73 51.61 52.03 53.57 52.68 48.34 49.86 47.30 51.73 50.46 49.25 50.29 50.20 51.02 48.56 48.46 46.68 45.09 37.07 41.51 40.09 42.29 43.81 46.18 50.76 53.16 55.22 57.00 58.24
54.01 54.14 53.76 57.34 54.59 61.22 61.82 60.26 45.58 38.11 48.13 45.08 46.35 48.53 47.61 46.95 47.95 48.47 48.13 47.10 45.48 42.35 43.51 46.04 46.83 50.06 51.66 46.94 49.83 48.09 45.02 38.55 35.68 36.57 36.76 45.24 41.62 43.40 48.32 50.60 51.07 52.17 54.66 57.01 58.85
53.69 53.46 53.78 56.62 59.90 61.80 60.99 52.49 38.65 43.80 45.21 47.80 47.29 47.39 45.08 47.47 46.95 47.11 47.14 44.22 47.59 46.74 44.05 41.51 40.75 47.33 49.94 47.53 45.25 47.01 44.38 39.81 29.18 30.44 37.76 44.11 39.29 44.05 51.91 53.41 52.50 55.66 56.40 57.38 57.49
52.94 54.27 53.71 55.63 58.33 59.94 54.45 43.64 42.36 45.89 48.07 46.67 46.37 44.07 44.21 46.78 46.60 46.26 45.65 44.83 46.74 48.12 42.09 40.42 41.42 49.90 50.41 50.65 48.94 44.89 43.59 47.86 41.84 39.02 39.21 40.81 43.50 49.07 51.04 50.97 51.40 54.88 55.81 55.88 56.26
53.43 51.56 51.90 58.08 59.16 55.73 50.24 43.84 46.91 50.86 49.41 48.54 42.83 45.10 42.63 45.01 44.26 45.21 45.06 47.88 46.59 49.99 49.92 44.60 38.17 48.08 49.20 50.37 50.13 47.69 48.99 42.55 43.48 33.91 32.01 38.24 40.25 42.14 47.31 48.64 50.54 53.15 54.47 55.36 56.15
53.57 48.35 56.39 60.05 58.81 52.04 44.95 46.79 49.42 51.97 51.43 48.10 45.27 44.45 45.28 45.37 45.34 44.73 45.58 48.89 50.14 50.44 51.10 48.65 46.16 45.21 48.21 45.93 43.70 45.98 43.73 44.86 43.94 44.05 36.94 34.40 38.40 47.28 47.09 49.34 50.55 52.29 55.24 55.20 55.17
52.56 44.22 58.50 60.37 46.70 47.38 46.91 49.02 49.71 50.76 52.36 50.84 49.94 47.63 46.15 47.54 45.72 45.15 44.86 48.06 52.59 51.22 47.18 49.43 46.50 43.36 44.33 49.12 50.25 48.58 46.87 45.30 41.52 38.42 42.29 40.15 38.84 49.33 49.42 49.77 52.00 52.35 54.47 55.92 55.76
48.72 50.96 59.67 58.48 41.99 45.22 49.76 49.43 50.87 49.89 50.94 50.53 48.37 49.78 49.79 47.47 44.96 46.80 47.26 52.69 53.39 50.74 48.18 49.93 45.43 39.85 41.92 46.59 49.02 45.94 46.08 46.61 46.78 45.56 40.02 37.34 39.61 49.59 49.16 48.88 50.73 51.79 53.31 55.15 55.71
50.22 45.19 52.13 54.39 50.99 48.21 47.83 47.09 47.38 52.20 50.75 51.60 50.28 50.73 48.64 46.73 48.84 46.53 47.42 50.41 52.39 51.98 46.77 51.62 46.72 43.06 39.16 42.51 46.51 44.48 45.28 45.72 44.90 40.47 40.14 39.55 41.63 45.70 47.60 48.16 49.55 50.75 52.20 53.71 54.85
52.09 48.33 51.56 45.63 48.02 49.82 50.91 49.00 47.03 47.01 51.22 52.33 49.27 48.36 48.59 45.75 46.81 46.78 49.12 49.68 50.78 46.93 49.68 50.02 43.48 45.07 45.40 46.31 46.47 45.67 45.11 45.48 43.43 44.43 39.64 42.79 42.54 45.62 47.08 48.43 50.36 51.28 51.87 51.67 52.20
48.90 49.55 52.80 49.91 50.31 49.62 48.77 48.56 47.83 48.31 49.89 48.97 48.94 49.49 50.23 47.79 48.24 46.56 49.17 50.11 48.41 50.42 49.60 50.75 44.93 46.21 43.94 46.18 45.96 43.38 45.15 45.58 44.88 44.63 44.36 44.33 43.79 48.69 50.24 50.21 49.67 49.86 50.41 51.22 50.72
52.94 55.92 53.48 48.30 49.19 48.78 48.89 50.01 49.15 50.88 52.09 52.43 51.42 50.44 49.08 51.69 53.97 54.55 54.97 54.91 52.93 50.73 49.10 49.00 47.07 43.02 38.99 42.46 41.73 36.03 42.73 44.29 45.28 46.09 45.37 41.43 46.41 49.05 48.40 48.88 49.73 50.21 50.23 51.21 51.21
MSLP
1019.82 1019.77 1019.53 1019.44 1019.07 1018.96 1018.83 1018.64 1018.41 1018.11 1017.82 1017.45 1016.91 1016.84 1016.80 1016.42 1016.20 1015.00 1013.27 1010.87 1010.72 1010.86 1011.33 1010.62 1010.40 1009.67 1008.91 1008.17 1007.54 1006.96 1006.66 1006.13 1006.03 1006.72 1009.20 1008.51 1007.38 1007.44 1007.60 1008.66 1009.92 1011.28 1011.67 1010.33 1011.30
1019.54 1019.54 1019.45 1019.20 1019.05 1018.80 1018.60 1018.59 1018.27 1017.94 1017.75 1017.50 1016.90 1016.50 1016.52 1016.41 1015.45 1012.64 1009.87 1009.93 1010.30 1010.59 1010.96 1009.98 1009.43 1009.12 1008.45 1007.65 1007.04 1006.65 1006.44 1006.17 1007.56 1008.55 1009.60 1009.78 1008.12 1007.89 1007.94 1008.90 1010.10 1011.97 1012.44 1011.18 1011.31
1019.33 1019.30 1019.13 1019.03 1018.95 1018.70 1018.55 1018.42 1018.17 1017.81 1017.66 1017.23 1016.94 1016.43 1016.53 1016.47 1013.84 1009.13 1008.27 1009.23 1009.85 1010.33 1010.13 1008.88 1008.49 1008.24 1007.79 1006.95 1006.32 1006.16 1006.09 1005.63 1008.01 1008.21 1008.31 1009.41 1009.10 1008.87 1009.11 1009.54 1011.29 1012.52 1010.56 1011.31 1012.00
1019.16 1018.94 1018.98 1018.86 1018.69 1018.53 1018.49 1018.29 1018.15 1017.74 1017.62 1017.25 1016.73 1016.49 1016.25 1015.81 1011.69 1008.88 1008.98 1009.17 1009.77 1010.08 1010.01 1008.77 1007.95 1007.64 1007.18 1006.18 1005.74 1005.85 1005.67 1005.70 1007.65 1007.55 1008.29 1009.16 1009.52 1009.64 1009.70 1009.78 1010.56 1011.76 1010.49 1011.33 1011.74
1019.05 1018.89 1018.78 1018.62 1018.53 1018.46 1018.23 1018.10 1017.95 1017.56 1017.54 1017.34 1016.80 1016.49 1015.94 1013.57 1009.73 1008.89 1009.17 1009.62 1009.78 1009.99 1009.25 1008.07 1007.60 1007.23 1006.54 1005.64 1005.52 1005.61 1005.38 1005.65 1006.83 1007.60 1008.98 1008.78 1009.27 1009.72 1010.02 1009.18 1010.06 1010.81 1010.84 1011.00 1011.18
1018.75 1018.69 1018.63 1018.49 1018.29 1018.29 1018.06 1017.81 1017.74 1017.37 1017.38 1017.22 1016.93 1016.63 1015.81 1011.36 1007.29 1008.26 1009.03 1009.54 1009.30 1009.61 1008.55 1007.64 1006.89 1006.57 1006.02 1005.39 1005.25 1005.36 1005.44 1005.58 1006.29 1007.01 1007.14 1008.19 1008.96 1009.71 1010.01 1010.57 1010.85 1010.54 1010.65 1011.01 1010.99
1018.54 1018.57 1018.39 1018.31 1018.24 1018.14 1017.88 1017.82 1017.50 1017.28 1017.34 1017.03 1016.88 1016.25 1014.31 1010.08 1007.40 1007.74 1008.64 1008.69 1008.63 1008.77 1007.92 1007.42 1006.96 1006.76 1006.21 1005.63 1005.39 1005.52 1005.79 1005.79 1006.14 1006.38 1006.85 1007.26 1008.51 1008.01 1008.94 1009.93 1009.91 1010.19 1010.47 1010.68 1010.69
1018.07 1018.34 1018.30 1018.21 1018.01 1017.93 1017.76 1017.56 1017.44 1017.04 1017.08 1016.88 1016.66 1015.78 1012.31 1008.06 1007.83 1007.40 1007.83 1007.76 1008.04 1008.26 1007.70 1007.45 1007.40 1007.21 1006.97 1006.61 1006.05 1006.08 1005.88 1005.93 1005.77 1006.09 1006.17 1006.88 1007.14 1007.55 1007.74 1008.15 1008.70 1009.20 1009.73 1010.22 1010.69
1017.77 1017.99 1018.11 1018.17 1017.96 1017.69 1017.59 1017.33 1017.28 1016.99 1016.91 1016.67 1015.99 1014.51 1010.38 1008.03 1007.57 1006.83 1007.03 1007.12 1007.43 1007.79 1007.81 1007.84 1008.05 1007.72 1007.36 1007.15 1006.48 1006.16 1005.93 1005.91 1005.75 1005.53 1005.53 1005.91 1006.36 1007.14 1007.35 1007.52 1008.14 1008.84 1009.72 1010.00 1010.69
1017.41 1017.74 1017.86 1017.89 1017.85 1017.68 1017.54 1017.25 1016.97 1017.08 1016.60 1015.43 1014.35 1013.28 1009.66 1007.10 1006.29 1006.29 1006.47 1006.71 1007.25 1007.55 1007.92 1007.98 1007.92 1007.46 1007.16 1006.81 1006.17 1006.36 1005.89 1005.53 1005.05 1005.26 1005.44 1005.42 1006.04 1006.88 1007.01 1007.58 1007.22 1008.34 1009.11 1010.04 1010.96
1017.05 1017.39 1017.63 1017.76 1017.70 1017.64 1017.70 1016.94 1016.45 1015.59 1014.53 1011.68 1010.13 1009.18 1006.95 1006.21 1006.18 1006.11 1006.25 1006.74 1006.80 1007.55 1007.29 1007.41 1007.45 1006.97 1006.84 1006.33 1006.08 1005.99 1005.52 1005.21 1004.77 1004.90 1005.20 1005.25 1005.88 1006.68 1006.88 1007.09 1007.48 1008.07 1008.44 1009.67 1010.88
1016.64 1017.10 1017.32 1017.45 1017.49 1017.59 1017.46 1015.39 1012.06 1011.96 1011.22 1009.70 1009.14 1008.20 1007.38 1006.99 1006.09 1005.33 1005.79 1006.27 1006.65 1007.07 1007.03 1007.23 1007.10 1007.11 1006.82 1006.50 1006.04 1005.35 1005.22 1004.66 1004.96 1005.34 1005.62 1005.37 1005.63 1006.29 1006.55 1006.80 1007.16 1007.57 1008.34 1009.41 1009.95
1016.29 1016.72 1017.18 1017.25 1017.30 1017.54 1015.93 1013.95 1011.71 1011.89 1010.44 1007.74 1007.45 1007.21 1006.63 1006.37 1005.77 1005.10 1005.53 1005.72 1006.36 1006.75 1007.50 1008.01 1008.23 1007.50 1006.44 1006.12 1005.76 1005.26 1005.05 1005.56 1005.27 1005.85 1005.89 1006.53 1005.97 1006.08 1006.48 1006.75 1006.89 1007.32 1007.74 1008.44 1009.36
1016.01 1016.49 1016.76 1017.37 1017.57 1014.99 1014.17 1012.78 1012.86 1012.96 1010.39 1006.73 1006.16 1005.93 1005.78 1005.57 1005.36 1004.70 1004.81 1005.50 1006.75 1006.82 1007.78 1007.89 1007.72 1006.88 1006.01 1005.66 1005.58 1005.89 1006.35 1005.90 1006.06 1006.29 1006.46 1007.30 1006.85 1006.86 1007.48 1006.95 1006.78 1007.01 1007.44 1008.02 1008.80
1015.45 1016.18 1016.53 1016.65 1014.95 1013.67 1011.75 1011.54 1011.76 1012.28 1009.21 1004.88 1004.91 1004.61 1004.88 1005.19 1004.72 1004.70 1004.99 1005.23 1005.43 1006.83 1007.67 1007.67 1007.53 1006.42 1005.94 1006.21 1005.93 1006.33 1006.22 1006.42 1006.09 1006.26 1007.34 1008.09 1008.29 1008.02 1008.04 1007.52 1007.10 1007.32 1007.41 1007.78 1008.55
1015.00 1015.67 1016.51 1016.97 1015.80 1013.64 1012.86 1012.36 1012.08 1011.06 1007.45 1004.66 1004.19 1004.45 1004.54 1004.74 1004.37 1004.09 1004.99 1005.47 1005.35 1006.33 1007.24 1007.60 1007.05 1006.44 1006.86 1006.15 1005.91 1006.36 1006.61 1006.43 1006.40 1006.78 1008.07 1008.24 1008.72 1008.22 1008.94 1007.68 1007.98 1007.81 1008.46 1008.64 1008.89
1014.56 1015.17 1016.04 1014.85 1013.42 1012.62 1013.17 1012.80 1011.56 1008.68 1005.72 1004.25 1004.02 1004.42 1004.50 1004.47 1004.37 1004.42 1004.75 1005.23 1005.54 1006.30 1007.03 1007.02 1006.28 1005.38 1005.64 1005.49 1005.71 1005.89 1006.09 1006.68 1008.10 1008.08 1007.26 1006.56 1007.41 1006.37 1006.16 1007.51 1007.98 1008.63 1008.04 1008.89 1009.63
1014.09 1014.95 1015.29 1014.52 1013.35 1013.29 1013.02 1012.69 1009.40 1006.62 1005.06 1003.50 1003.77 1004.14 1004.17 1003.97 1004.24 1004.39 1004.52 1004.87 1005.51 1005.75 1006.21 1007.34 1006.59 1005.60 1005.31 1005.22 1005.80 1006.03 1005.97 1006.73 1009.34 1010.53 1008.27 1007.21 1006.13 1004.46 1004.84 1005.72 1007.09 1007.07 1007.54 1008.72 1009.78
1014.05 1014.75 1014.47 1014.04 1014.14 1013.78 1013.18 1011.05 1007.87 1005.05 1004.10 1003.28 1003.44 1003.61 1003.66 1003.42 1003.77 1004.07 1004.29 1004.50 1004.80 1005.33 1007.37 1008.96 1008.29 1007.00 1005.62 1005.34 1005.54 1005.41 1005.47 1006.28 1007.59 1009.20 1008.47 1006.98 1005.36 1004.74 1004.90 1005.34 1005.63 1006.21 1007.26 1008.41 1009.72
1013.02 1013.53 1012.59 1013.04 1013.80 1013.82 1012.43 1009.23 1006.76 1004.41 1002.98 1002.82 1002.77 1003.00 1002.95 1003.04 1003.68 1003.70 1003.85 1003.75 1004.12 1004.54 1006.66 1009.20 1010.12 1006.84 1006.11 1006.08 1005.74 1005.87 1006.08 1006.44 1007.20 1008.34 1008.16 1006.87 1005.53 1004.32 1004.84 1005.05 1005.64 1005.87 1006.97 1008.26 1009.57
1011.61 1011.50 1009.34 1011.74 1013.17 1012.62 1010.03 1007.79 1006.15 1003.97 1002.84 1002.52 1002.59 1002.59 1002.42 1002.61 1003.29 1003.29 1003.33 1003.90 1004.10 1004.65 1005.34 1006.09 1007.44 1006.27 1006.33 1005.83 1005.21 1005.68 1006.09 1006.56 1007.22 1007.75 1008.21 1007.58 1006.20 1005.49 1005.26 1005.17 1005.48 1006.07 1006.69 1007.85 1009.09
1010.20 1009.44 1008.05 1010.07 1011.23 1009.88 1008.41 1006.69 1005.47 1003.59 1002.93 1002.89 1002.57 1002.23 1002.29 1002.21 1002.82 1003.11 1003.53 1003.41 1003.93 1004.68 1005.30 1005.83 1006.03 1005.99 1005.70 1005.25 1005.34 1005.49 1005.67 1006.16 1007.18 1008.17 1008.36 1008.33 1006.77 1005.83 1005.59 1005.45 1005.75 1006.01 1006.23 1007.10 1008.21
1008.45 1008.62 1008.73 1008.06 1007.89 1007.51 1007.21 1006.12 1004.71 1003.59 1002.83 1003.07 1002.59 1002.36 1002.16 1002.23 1002.61 1003.19 1003.61 1005.07 1005.17 1005.27 1006.08 1006.18 1006.48 1006.48 1006.01 1005.73 1005.63 1005.71 1005.76 1006.00 1006.57 1007.81 1008.15 1008.14 1006.92 1005.86 1005.73 1005.77 1005.80 1006.02 1006.35 1006.84 1007.74
1007.32 1007.34 1007.80 1007.69 1006.44 1006.34 1005.93 1004.91 1004.08 1003.21 1002.53 1002.61 1002.63 1002.25 1002.31 1002.43 1002.67 1003.33 1003.95 1005.64 1005.99 1006.19 1006.96 1007.01 1006.89 1006.82 1006.67 1006.04 1005.79 1005.54 1005.76 1005.82 1006.39 1007.24 1007.68 1007.35 1006.30 1005.37 1005.13 1005.34 1005.48 1006.03 1006.56 1006.85 1007.43
1005.87 1004.07 1004.03 1004.52 1004.85 1004.83 1004.90 1004.07 1003.10 1002.49 1002.47 1002.15 1002.34 1002.30 1002.53 1002.68 1002.82 1003.56 1004.08 1005.65 1006.44 1007.12 1007.45 1007.61 1007.70 1007.68 1007.07 1006.39 1006.35 1006.21 1005.71 1005.68 1005.86 1006.28 1006.71 1006.50 1005.69 1004.88 1004.54 1004.84 1004.98 1005.50 1006.28 1006.99 1007.26
1004.62 1002.33 1002.64 1003.01 1004.17 1004.22 1003.69 1003.02 1002.15 1001.83 1002.10 1002.08 1001.96 1002.11 1002.54 1002.68 1003.04 1003.50 1003.96 1005.09 1006.06 1007.29 1007.48 1007.95 1008.45 1008.66 1008.45 1007.82 1007.25 1006.81 1006.35 1005.88 1005.74 1005.58 1005.57 1005.38 1004.91 1004.71 1004.73 1005.28 1005.68 1006.13 1006.51 1007.08 1007.63
1003.83 1002.08 1001.31 1002.15 1002.94 1003.27 1002.26 1001.96 1001.49 1001.55 1001.60 1001.72 1002.08 1002.18 1002.57 1003.11 1003.27 1004.21 1004.23 1004.64 1005.35 1006.59 1007.44 1008.13 1009.13 1009.81 1009.73 1009.46 1008.81 1007.91 1006.62 1006.05 1005.72 1005.42 1005.27 1005.02 1004.98 1004.86 1005.01 1005.50 1006.20 1006.69 1006.98 1007.41 1008.06
Wind_Speed
8 11 10 14 11 13 12 12 12 13 12 12 11 13 13 14 19 15 13 14 7 10 2 11 14 14 14 15 17 16 12 14 17 12 5 9 1 11 16 7 3 6 9 10 21
9 11 11 14 14 13 11 13 12 11 12 12 9 11 12 14 17 17 17 10 10 9 11 13 13 15 12 14 15 12 11 17 15 13 8 2 14 6 4 18 10 8 26 14 18
9 10 9 13 15 12 12 10 11 11 12 10 9 10 11 14 10 0 6 16 10 9 17 14 13 14 13 16 15 15 16 15 4 11 16 21 5 17 6 3 16 9 19 17 15
9 9 9 10 12 14 13 10 11 11 11 10 10 11 13 11 4 6 2 11 9 9 14 18 14 12 15 16 13 15 17 13 8 7 5 10 18 8 1 7 6 7 5 15 15
9 9 9 10 13 13 13 12 11 9 11 9 10 11 10 8 10 5 10 8 11 9 14 12 11 11 16 13 10 14 16 1 13 13 14 21 14 7 6 2 4 2 9 14 10
10 9 9 8 10 14 10 10 11 9 9 8 8 10 7 10 5 11 11 13 11 11 12 11 10 11 12 11 11 9 13 5 7 20 8 20 7 13 15 12 4 10 13 13 14
10 10 8 8 8 9 9 11 9 8 8 5 6 6 11 14 7 9 11 10 14 17 8 8 10 8 7 4 5 4 5 3 2 5 9 9 21 6 30 23 22 19 14 14 14
10 9 9 8 7 7 9 9 9 6 7 6 5 6 10 6 10 15 11 10 10 11 14 7 10 10 12 13 3 7 11 4 4 7 9 12 12 11 17 17 17 18 14 11 12
10 8 8 8 8 7 8 8 8 7 8 8 5 5 10 1 9 14 11 10 9 12 10 4 6 11 12 8 9 8 6 9 13 12 4 7 15 13 13 7 18 16 12 14 11
10 8 8 7 7 7 8 6 4 8 9 10 8 7 11 10 8 3 6 6 6 8 6 8 6 7 9 9 6 5 5 11 13 11 15 11 14 13 11 21 10 15 12 11 10
10 8 7 6 7 5 5 6 6 6 13 10 5 8 8 1 5 9 10 9 4 10 9 9 7 6 8 10 2 8 15 20 12 11 9 10 16 15 14 10 12 14 17 16 12
10 9 6 5 6 5 6 7 7 9 10 21 20 16 15 7 8 12 13 11 10 6 2 4 6 8 15 10 16 13 9 8 9 6 7 10 12 15 15 15 14 13 19 16 16
11 10 7 5 4 4 11 15 16 16 7 12 19 16 16 15 15 13 11 10 3 6 7 4 14 20 16 17 15 11 5 9 9 8 9 6 11 16 15 15 14 13 12 13 16
12 11 9 9 4 8 9 13 17 11 6 10 16 12 16 8 16 16 16 9 9 6 4 3 22 15 12 11 12 8 12 5 7 11 7 5 9 9 8 14 15 13 13 13 15
13 13 13 20 9 9 10 10 7 6 5 13 18 14 14 16 14 10 5 8 6 10 7 5 10 12 8 6 10 4 16 10 17 9 5 10 10 11 11 11 15 14 12 11 11
15 14 13 7 7 15 14 11 3 6 7 9 14 11 15 13 17 13 13 10 8 6 12 6 12 18 13 13 10 11 11 15 10 10 3 16 10 12 10 20 11 14 10 9 11
17 17 14 8 4 8 7 5 7 8 8 10 14 15 16 15 15 13 17 16 9 10 10 5 16 6 10 9 5 8 9 4 9 6 9 8 9 9 21 11 12 17 16 12 11
17 15 10 11 9 8 5 6 13 13 21 5 14 16 18 16 16 15 13 17 18 18 8 6 14 11 8 11 7 19 10 3 8 5 10 3 5 3 21 16 28 25 16 15 14
17 7 7 9 13 6 5 12 11 13 20 10 14 14 17 16 10 14 18 17 18 18 7 5 4 18 7 5 4 6 7 7 2 15 6 4 13 10 9 9 1 18 16 16 15
10 6 12 13 11 6 7 18 19 21 10 13 15 16 16 15 10 13 14 16 16 8 23 11 8 22 8 5 5 6 8 3 2 2 4 8 10 5 5 4 2 9 14 14 14
10 6 8 16 12 7 13 17 22 24 7 8 16 16 17 12 14 13 10 11 5 7 5 7 17 6 6 8 9 7 7 7 6 3 1 4 3 7 7 6 4 6 13 14 15
12 9 16 19 12 11 15 22 23 23 9 9 12 16 15 14 15 13 14 7 9 8 5 8 4 4 9 2 4 8 10 12 3 5 2 1 7 3 5 4 2 4 8 14 16
12 8 12 14 15 13 18 25 26 25 15 15 12 14 10 12 10 11 8 4 5 2 1 3 3 5 9 8 7 8 11 9 4 3 5 3 4 5 3 1 1 4 5 7 13
10 11 7 10 11 19 23 21 25 23 15 14 15 12 8 10 8 9 7 3 3 3 4 4 5 8 7 10 5 12 12 11 11 4 3 8 14 8 10 9 8 7 5 6 9
7 12 10 15 19 19 20 20 24 19 16 16 17 17 11 9 10 8 8 7 3 3 2 3 7 11 13 15 3 12 9 10 13 10 11 10 14 12 8 5 1 3 8 5 7
8 11 13 12 20 21 20 26 26 21 17 13 12 12 14 10 10 10 11 8 7 8 7 4 2 4 3 10 15 12 15 13 15 13 13 15 14 11 7 9 9 6 4 2 7
10 12 9 14 21 20 19 23 25 19 18 16 17 14 16 7 10 10 12 7 4 9 9 7 3 2 2 6 7 6 9 16 15 15 11 11 10 9 6 2 3 4 5 2 5
Wind_Direction
283 296 306 310 323 323 323 316 319 316 311 309 323 322 317 316 305 263 257 237 199 221 275 259 217 234 245 246 245 239 262 265 271 313 9 329 116 37 96 114 86 128 45 110 112
278 294 304 311 316 318 324 321 319 316 311 311 317 325 320 320 293 270 244 208 145 151 222 236 204 220 231 237 241 240 240 257 73 108 105 340 295 135 246 141 193 137 190 117 118
274 281 296 307 312 317 322 317 312 315 309 312 324 325 322 316 281 335 348 163 159 177 231 228 218 217 235 238 229 230 252 272 107 139 161 194 189 51 7 9 92 315 117 116 136
262 271 289 306 312 314 317 315 309 316 309 316 323 327 318 284 286 47 155 147 154 211 229 258 231 228 250 247 234 246 237 274 46 184 167 36 76 39 333 238 200 194 103 138 136
260 273 281 303 309 312 315 315 304 310 306 305 321 330 308 239 260 73 138 144 166 199 233 231 230 226 241 248 231 233 272 249 106 56 224 102 117 151 237 225 54 288 255 120 132
254 267 275 290 303 309 311 308 301 302 300 304 319 331 256 264 90 133 127 154 178 206 238 239 231 238 283 260 208 244 269 152 153 175 183 78 230 156 215 204 232 199 146 140 155
254 266 274 288 301 307 307 304 300 300 290 295 312 302 270 255 352 128 168 177 194 213 226 249 284 291 301 250 239 328 294 246 207 139 104 142 203 183 170 189 155 154 145 163 157
244 260 273 284 292 297 297 295 295 278 276 281 301 284 261 263 244 243 188 200 208 246 265 337 317 301 304 338 265 242 235 202 183 193 187 166 108 136 132 145 160 147 148 157 141
239 250 264 280 289 290 287 289 271 266 261 257 242 214 262 102 236 233 217 228 200 224 244 335 271 255 263 250 230 221 216 185 224 215 189 241 132 143 155 148 146 149 184 156 151
233 240 252 268 284 285 290 274 286 269 233 226 257 287 246 226 205 150 176 223 170 186 207 236 228 229 228 224 205 196 235 206 217 191 228 212 132 156 179 144 175 147 148 137 164
223 225 241 267 271 276 258 240 217 194 242 227 194 238 166 266 173 220 171 189 175 187 216 196 198 209 323 258 16 242 245 220 191 172 213 201 152 169 178 196 160 170 162 157 172
208 210 216 241 264 222 254 254 331 9 288 219 243 266 271 280 259 237 163 210 180 226 192 186 277 148 217 246 245 253 234 152 113 166 233 225 174 171 187 191 177 187 169 177 168
196 189 196 220 161 191 235 238 287 353 264 244 214 232 237 223 237 207 186 212 302 215 191 86 279 290 265 208 241 257 287 220 159 186 214 13 245 172 185 197 201 192 187 178 163
189 180 172 143 180 222 226 240 249 280 275 208 196 225 235 213 228 241 190 216 199 153 210 242 227 253 229 207 231 272 339 218 274 216 201 211 221 184 0 212 199 198 199 188 165
178 178 163 196 336 216 5 203 145 203 263 178 190 201 205 210 217 195 217 259 221 88 232 188 302 242 249 345 318 119 273 274 245 258 74 358 303 186 192 247 218 215 200 195 158
174 172 164 228 256 266 321 312 170 234 237 157 154 177 217 204 233 206 184 246 210 234 163 246 255 273 106 231 253 171 231 250 276 269 132 225 202 152 195 220 266 194 203 198 162
171 168 175 186 227 222 243 254 213 222 242 178 182 196 210 201 220 228 187 201 213 212 177 243 241 190 172 209 210 234 246 236 6 337 269 293 158 222 209 183 127 227 186 170 156
165 162 213 239 265 287 243 222 228 202 237 206 186 197 207 196 211 204 208 210 211 245 233 162 263 179 201 237 123 272 256 227 167 293 310 33 265 85 157 194 176 204 163 158 162
138 188 225 224 247 290 232 211 213 230 207 215 187 198 211 207 196 193 218 209 222 218 130 2 190 278 343 264 282 291 243 302 318 198 285 277 263 128 82 102 224 151 158 163 169
175 182 225 201 193 222 232 225 221 240 255 186 208 199 206 201 192 194 203 220 221 243 132 166 315 248 194 244 251 267 339 305 277 294 271 299 312 106 152 108 131 164 160 167 172
181 203 197 173 161 210 221 218 236 240 238 210 211 204 221 178 197 197 220 143 160 218 235 239 221 153 139 215 250 178 241 242 304 249 354 333 321 35 48 60 141 229 167 173 176
191 207 137 147 180 207 221 215 231 243 197 251 258 223 224 198 193 222 220 245 162 227 209 252 310 266 235 301 319 320 284 211 154 274 148 352 278 48 97 76 143 239 205 177 179
186 178 167 177 194 202 212 224 232 238 189 218 238 251 204 242 192 215 218 60 64 170 301 278 234 261 287 196 210 245 255 265 263 71 207 173 263 157 151 251 253 243 234 190 181
181 179 167 216 215 199 202 212 222 237 237 204 227 234 203 222 215 207 197 109 108 84 43 325 247 252 238 254 336 207 239 243 233 148 231 256 269 242 201 211 194 184 284 232 190
217 204 171 187 199 198 201 214 212 209 220 217 212 215 198 211 202 213 196 118 128 111 179 241 242 266 274 268 266 294 285 236 239 235 233 252 260 270 338 5 148 95 173 247 271
211 204 166 181 184 202 210 218 217 195 190 212 231 207 201 195 224 196 213 154 179 165 200 192 233 325 306 294 288 271 278 274 275 272 253 268 269 278 42 28 22 3 308 244 284
224 278 179 166 185 200 212 211 221 193 199 207 211 197 219 117 82 59 53 161 209 159 200 156 134 136 237 26 343 318 242 253 265 266 262 261 271 292 306 140 16 325 313 211 294